CAPE
27 18 21 19 24 5 1 5 0 0 0 0 0 0 0 0 0 0 0 0 0 0 0 0 0 0 0 0 0 0 0 0 0 0 0 0 0 0 0 0 0 0 0 0 0 0 0
54 30 20 28 29 24 16 3 7 4 0 0 0 0 0 0 0 0 0 0 0 0 0 0 0 0 0 0 0 0 0 0 0 0 0 0 0 0 0 0 0 0 0 0 0 0 0
71 66 39 28 19 44 41 31 10 7 7 0 0 0 0 0 0 0 0 0 0 0 0 0 0 0 0 0 0 0 0 0 0 0 0 0 0 0 0 0 0 0 0 0 0 0 0
58 60 71 73 51 32 30 32 20 13 8 11 0 0 0 0 0 0 0 0 0 0 0 0 0 0 2 0 0 0 0 0 0 0 0 0 0 0 0 0 0 0 0 0 0 0 0
82 76 80 88 69 66 53 38 15 23 14 11 9 0 0 0 0 0 0 0 0 0 0 0 0 4 3 0 0 0 0 0 0 0 0 0 0 0 0 0 0 0 0 0 0 0 0
67 90 76 96 83 66 64 65 54 23 33 16 12 9 0 0 0 0 0 0 0 0 0 0 0 0 0 0 0 0 0 0 0 0 0 0 0 0 0 0 0 0 0 0 0 0 0
61 101 86 116 103 106 81 74 60 56 40 34 19 10 2 0 0 0 0 1 2 4 1 2 0 0 0 0 0 0 0 0 0 0 0 0 0 0 0 0 0 0 0 0 0 0 0
140 132 73 111 144 139 89 88 63 46 54 40 18 9 8 0 0 0 3 37 21 4 3 0 3 7 0 0 0 0 0 0 0 0 0 0 0 0 0 0 0 0 0 0 0 0 0
142 159 121 103 164 155 135 93 73 57 34 50 30 22 12 6 0 0 2 8 30 23 38 8 3 7 0 0 0 0 0 0 0 0 0 0 0 0 0 0 0 0 0 0 0 0 0
172 157 161 118 141 135 136 122 65 49 61 44 52 20 20 12 1 0 4 1 4 103 84 1 27 26 26 2 5 0 0 0 0 0 0 0 0 0 0 0 0 0 0 0 0 0 0
135 153 165 170 180 140 106 112 89 58 47 65 44 35 32 25 7 8 0 8 8 28 3 0 0 1 0 1 0 0 0 0 0 0 0 0 0 0 0 0 0 0 0 0 0 0 0
114 118 146 165 151 148 137 122 118 70 47 64 59 51 42 36 24 14 0 0 0 0 4 0 2 14 28 19 0 0 0 0 0 0 0 0 0 0 0 0 0 0 0 0 0 0 0
113 103 112 119 122 150 154 142 128 106 84 69 44 61 70 36 19 27 1 3 0 3 0 1 13 18 17 11 19 12 0 0 0 4 3 0 0 0 0 0 0 0 0 3 0 0 0
166 118 114 95 101 119 153 159 143 120 101 99 69 81 72 29 14 26 7 2 0 1 0 0 17 5 10 10 21 8 6 0 0 0 0 1 5 0 0 0 0 0 0 4 10 14 11
170 164 137 110 81 95 102 139 147 130 110 132 119 147 142 86 0 12 16 0 0 0 0 0 18 14 10 11 2 14 8 8 1 16 3 30 7 0 0 0 0 0 6 0 3 3 0
90 90 100 137 95 77 90 100 140 155 129 156 264 203 104 53 98 16 20 0 0 0 0 23 13 5 8 22 13 13 8 3 15 11 1 12 4 0 0 0 0 0 0 3 16 5 5
72 94 86 81 90 83 66 80 107 160 155 211 325 112 10 98 145 22 0 0 6 0 0 10 5 2 3 2 0 7 0 0 1 0 0 0 0 0 0 0 0 0 6 4 2 0 15
46 73 90 91 73 78 70 61 82 139 170 302 302 119 89 188 84 28 0 23 1 1 6 3 0 0 0 0 0 1 16 0 0 0 0 0 2 0 0 0 0 2 4 12 43 19 1
38 45 53 80 88 74 64 60 64 123 190 313 175 151 185 232 25 4 28 15 27 4 7 6 0 0 0 0 3 0 0 0 0 0 0 0 5 3 1 0 0 0 0 8 18 0 13
48 33 62 84 46 43 77 57 68 109 194 366 119 67 65 112 112 25 36 4 7 6 0 0 0 1 0 0 0 0 0 0 0 0 0 0 0 0 4 0 0 0 0 0 11 25 0
50 50 64 60 46 52 79 58 67 114 192 341 168 148 98 137 13 56 46 39 4 2 0 0 4 0 0 0 0 0 0 0 0 0 0 0 1 4 2 0 0 0 0 0 0 0 1
59 36 57 43 54 104 47 58 70 140 223 294 60 141 85 107 4 74 1 47 5 7 1 1 0 0 0 0 0 0 0 0 0 0 0 0 1 5 8 0 0 0 0 0 0 0 0
67 40 26 42 59 29 49 67 80 184 214 141 186 121 82 127 187 4 21 8 36 19 8 0 0 0 6 0 0 0 0 0 0 0 0 0 1 0 12 4 0 1 0 0 0 0 0
39 44 36 49 24 49 71 68 107 210 189 243 104 150 132 47 133 79 41 47 53 110 13 6 26 6 0 0 0 0 1 2 0 0 0 2 7 13 8 3 6 0 0 0 0 0 0
34 41 32 39 44 47 42 75 140 261 225 205 276 262 262 177 15 31 57 31 76 83 9 0 1 0 0 0 1 2 3 4 7 19 9 1 3 6 1 7 0 0 0 0 0 0 0
70 36 48 42 51 62 88 183 280 350 363 371 468 361 271 122 17 36 169 26 26 0 1 2 0 0 0 4 4 1 1 1 5 4 21 19 2 1 14 4 0 0 0 0 0 0 0
60 62 24 43 98 126 168 200 296 355 437 414 318 378 108 54 0 13 66 51 3 3 2 0 0 0 2 2 1 3 6 1 2 0 3 9 8 10 5 3 0 0 0 0 0 0 0
48 61 39 22 8 78 158 217 283 244 324 378 507 328 141 27 12 0 9 17 2 2 6 1 2 4 6 3 4 6 3 4 3 1 2 1 7 8 4 3 1 0 0 0 0 0 0
27 47 48 30 25 7 35 83 158 134 172 294 72 144 3 44 13 2 19 3 0 2 0 9 0 1 13 8 6 6 12 4 1 5 0 0 0 0 0 0 0 0 0 0 0 0 0
CIN
-0 -0 -0 -0 -0 -0 -0 -0 -0 -0 -0 -0 -0 -0 -0 -0 -0 -0 -0 -0 -0 -0 -0 -0 -0 -0 -0 -0 -0 -0 -0 -0 -0 -0 -0 -0 -0 -0 -0 -0 -0 -0 -0 -0 -0 -0 -0
-0 -0 -0 -0 -0 -0 -0 -0 -0 -0 -0 -0 -0 -0 -0 -0 -0 -0 -0 -0 -0 -0 -0 -0 -0 -0 -0 -0 -0 -0 -0 -0 -0 -0 -0 -0 -0 -0 -0 -0 -0 -0 -0 -0 -0 -0 -0
-0 -0 -0 -0 -0 -0 -0 -0 -0 -0 -0 -0 -0 -0 -0 -0 -0 -0 -0 -0 -0 -0 -0 -0 -0 -0 -0 -0 -0 -0 -0 -0 -0 -0 -0 -0 -0 -0 -0 -0 -0 -0 -0 -0 -0 -0 -0
-0 -0 -0 -1 -1 -0 -0 -0 -0 -0 -0 -0 -0 -0 -0 -0 -0 -0 -0 -0 -0 -0 -0 -0 -0 -0 -0 -0 -0 -0 -0 -0 -0 -0 -0 -0 -0 -0 -0 -0 -0 -0 -0 -0 -0 -0 -0
-0 -0 -0 -0 -0 -0 -0 -0 -0 -0 -0 -0 -0 -0 -0 -0 -0 -0 -0 -0 -0 -0 -0 -0 -0 -0 -0 -0 -0 -0 -0 -0 -0 -0 -0 -0 -0 -0 -0 -0 -0 -0 -0 -0 -0 -0 -0
-0 -0 -0 -0 -0 -0 -0 -0 -0 -0 -0 -0 -0 -0 -0 -0 -0 -0 -0 -0 -0 -0 -0 -0 -0 -0 -0 -0 -0 -0 -0 -0 -0 -0 -0 -0 -0 -0 -0 -0 -0 -0 -0 -0 -0 -0 -0
-0 -0 -0 -0 -0 -0 -0 -0 -0 -0 -0 -0 -0 -0 -0 -0 -0 -0 -0 -0 -0 -19 -0 -5 -0 -0 -0 -0 -0 -0 -0 -0 -0 -0 -0 -0 -0 -0 -0 -0 -0 -0 -0 -0 -0 -0 -0
-0 -0 -0 -0 -0 -0 -0 -0 -0 -0 -0 -0 -1 -1 -0 -0 -0 -0 -12 -0 -0 -2 -0 -0 -3 -0 -0 -0 -0 -0 -0 -0 -0 -0 -0 -0 -0 -0 -0 -0 -0 -0 -0 -0 -0 -0 -0
-0 -0 -0 -0 -0 -0 -0 -0 -0 -0 -0 -0 -0 -0 -0 -0 -0 -0 -0 -0 -0 -1 -0 -2 -0 -0 -0 -0 -0 -0 -0 -0 -0 -0 -0 -0 -0 -0 -0 -0 -0 -0 -0 -0 -0 -0 -0
-0 -0 -0 -0 -0 -0 -0 -0 -0 -0 -0 -0 -0 -1 -1 -0 -0 -0 -0 -0 -18 -3 -0 -0 -0 -0 -0 -0 -0 -0 -0 -0 -0 -0 -0 -0 -0 -0 -0 -0 -0 -0 -0 -0 -0 -0 -0
-0 -0 -0 -0 -0 -0 -0 -0 -0 -0 -0 -0 -0 -1 -2 -0 -5 -0 -0 -0 -38 -45 -0 -0 -0 -0 -0 -0 -0 -0 -0 -0 -0 -0 -0 -0 -0 -0 -0 -0 -0 -0 -0 -0 -0 -0 -0
-0 -0 -0 -0 -0 -0 -0 -0 -0 -0 -0 -0 -0 -0 -2 -0 -0 -6 -2 -5 -0 -0 -0 -0 -0 -0 -0 -0 -0 -0 -0 -0 -0 -0 -0 -0 -0 -0 -0 -0 -0 -0 -0 -0 -0 -0 -0
-0 -0 -0 -0 -0 -0 -0 -0 -0 -0 -0 -0 -0 -1 -0 -1 -0 -0 -0 -0 -0 -0 -0 -0 -0 -0 -0 -0 -0 -0 -0 -0 -0 -0 -0 -0 -0 -0 -0 -0 -0 -0 -0 -0 -0 -0 -0
-0 -0 -0 -0 -0 -0 -0 -0 -0 -0 -0 -0 -0 -1 -5 -1 -4 -0 -0 -0 -0 -0 -0 -0 -0 -0 -0 -0 -0 -0 -0 -0 -0 -0 -0 -0 -0 -0 -0 -0 -0 -0 -0 -0 -0 -0 -0
-0 -0 -0 -0 -0 -0 -0 -0 -0 -0 -0 -0 -0 -0 -0 -0 -0 -0 -0 -0 -0 -0 -0 -0 -0 -3 -0 -0 -0 -0 -0 -0 -0 -0 -0 -0 -0 -0 -0 -0 -0 -0 -0 -0 -0 -0 -0
-0 -0 -0 -0 -0 -0 -0 -0 -0 -0 -0 -0 -0 -0 -0 -0 -1 -0 -0 -0 -0 -0 -0 -1 -0 -0 -0 -0 -0 -0 -0 -0 -0 -0 -0 -4 -0 -0 -0 -0 -0 -0 -0 -0 -0 -0 -0
-0 -0 -0 -0 -0 -0 -0 -0 -0 -0 -0 -0 -0 -0 -0 -0 -0 -0 -0 -0 -0 -0 -0 -0 -0 -0 -0 -0 -0 -0 -0 -0 -0 -0 -0 -0 -0 -0 -0 -0 -0 -0 -0 -0 -0 -0 -0
-0 -0 -0 -0 -0 -0 -0 -0 -0 -0 -0 -0 -0 -0 -0 -0 -0 -0 -0 -0 -0 -0 -0 -0 -0 -0 -0 -0 -0 -0 -0 -0 -0 -0 -0 -0 -0 -0 -0 -0 -0 -0 -0 -0 -1 -0 -0
-0 -0 -0 -0 -0 -0 -0 -0 -0 -0 -0 -0 -0 -0 -1 -0 -0 -9 -0 -0 -0 -0 -0 -0 -0 -0 -0 -0 -0 -0 -0 -0 -0 -0 -0 -0 -0 -0 -0 -0 -0 -0 -0 -0 -0 -2 -0
-0 -0 -0 -0 -1 -0 -0 -0 -0 -0 -0 -0 -0 -0 -1 -1 -0 -0 -0 -0 -0 -0 -0 -0 -0 -0 -0 -0 -0 -0 -0 -0 -0 -0 -0 -0 -0 -0 -0 -0 -0 -0 -0 -0 -0 -0 -0
-0 -0 -0 -0 -0 -0 -0 -0 -0 -0 -0 -0 -0 -0 -0 -0 -8 -0 -0 -0 -0 -0 -0 -0 -0 -0 -0 -0 -0 -0 -0 -0 -0 -0 -0 -0 -0 -0 -0 -0 -0 -0 -0 -0 -0 -0 -0
-0 -0 -1 -0 -0 -0 -0 -0 -0 -0 -0 -0 -0 -2 -3 -0 -0 -0 -0 -0 -0 -0 -0 -0 -0 -0 -0 -0 -0 -0 -0 -0 -0 -0 -0 -0 -0 -0 -0 -0 -0 -0 -0 -0 -0 -0 -0
-0 -0 -0 -0 -0 -0 -0 -0 -0 -0 -0 -1 -1 -3 -4 -3 -0 -3 -0 -23 -0 -0 -0 -0 -0 -0 -0 -1 -0 -0 -0 -0 -0 -0 -0 -0 -0 -0 -0 -0 -0 -0 -0 -0 -0 -0 -0
-0 -0 -0 -0 -0 -0 -0 -0 -0 -0 -0 -0 -0 -0 -0 -0 -1 -0 -0 -0 -1 -1 -3 -0 -0 -6 -0 -0 -0 -0 -0 -0 -0 -0 -0 -0 -0 -0 -0 -0 -0 -0 -0 -0 -0 -0 -0
-0 -0 -0 -0 -0 -0 -0 -0 -0 -0 -0 -0 -0 -0 -0 -0 -0 -2 -25 -4 -0 -0 -9 -0 -0 -0 -0 -0 -0 -0 -0 -0 -0 -0 -0 -0 -0 -0 -0 -0 -0 -0 -0 -0 -0 -0 -0
-0 -0 -0 -0 -0 -0 -0 -0 -0 -0 -0 -0 -0 -0 -0 -2 -0 -4 -0 -59 -25 -0 -0 -0 -0 -0 -0 -0 -0 -0 -0 -0 -0 -0 -0 -0 -0 -0 -0 -0 -0 -0 -0 -0 -0 -0 -0
-0 -0 -0 -1 -1 -0 -0 -0 -0 -0 -0 -0 -0 -0 -4 -1 -0 -0 -2 -36 -0 -0 -0 -0 -0 -0 -0 -0 -0 -0 -0 -0 -0 -0 -0 -0 -0 -0 -0 -0 -0 -0 -0 -0 -0 -0 -0
-4 -0 -0 -0 -0 -3 -0 -0 -0 -3 -0 -0 -0 -0 -0 -9 -0 -0 -0 -15 -0 -0 -0 -0 -0 -0 -0 -0 -0 -0 -0 -0 -0 -0 -0 -0 -0 -0 -0 -0 -0 -0 -0 -0 -0 -0 -0
-0 -6 -0 -0 -0 -0 -2 -8 -3 -7 -5 -0 -1 -0 -3 -1 -0 -0 -0 -0 -0 -10 -0 -0 -0 -0 -0 -0 -0 -0 -0 -0 -0 -0 -0 -0 -0 -0 -0 -0 -0 -0 -0 -0 -0 -0 -0
Wind_Speed
19 20 19 18 15 16 17 18 22 23 23 22 22 21 21 20 18 16 14 13 10 9 6 4 7 10 7 7 12 10 3 5 6 3 5 7 7 6 11 6 8 13 10 8 10 9 12
19 20 20 19 17 17 18 18 18 18 24 23 22 21 21 21 19 17 16 14 12 10 7 3 6 9 4 12 2 5 5 6 8 4 5 7 4 4 4 8 10 3 7 9 9 12 14
21 23 23 22 19 17 17 15 15 17 18 25 24 23 22 21 20 18 16 15 13 11 9 4 2 3 7 20 2 4 5 7 7 7 9 9 6 8 4 6 4 8 13 13 14 14 10
23 22 20 18 17 19 18 16 14 16 19 17 25 24 23 23 20 19 17 15 13 12 9 5 2 3 10 5 7 10 14 15 14 10 10 4 6 5 7 1 5 9 7 12 5 7 6
25 25 24 20 19 18 18 18 17 16 19 20 16 24 23 23 21 19 17 14 12 11 6 5 3 7 12 3 7 12 16 10 10 9 11 5 9 8 7 11 10 11 12 10 6 6 6
25 26 25 23 21 19 20 19 20 19 18 18 19 19 23 23 22 20 17 15 13 11 3 3 3 5 10 7 6 6 11 11 6 14 11 9 10 11 12 12 13 13 13 6 12 7 8
28 27 27 26 25 23 21 21 20 19 18 17 17 17 20 23 23 21 19 12 7 6 8 11 13 15 1 9 4 11 8 11 10 14 11 16 13 18 24 21 17 6 9 13 6 6 9
29 28 29 28 26 25 24 23 21 18 19 18 16 16 17 23 25 29 19 16 20 3 9 19 19 23 15 0 5 11 11 15 14 16 16 11 20 22 14 15 16 14 13 16 11 8 10
31 30 30 30 29 28 27 26 23 22 20 19 18 16 17 18 25 22 24 32 16 18 9 14 33 34 22 18 9 17 14 12 18 21 22 21 10 18 14 14 15 16 16 14 14 7 13
32 32 32 32 32 31 30 30 27 26 21 21 18 17 13 10 14 15 22 24 10 9 7 16 20 17 32 18 24 25 19 11 12 20 18 17 14 13 19 18 15 16 15 16 15 11 11
35 35 34 33 33 32 32 29 27 25 25 22 20 18 13 16 1 15 13 20 12 6 6 7 26 11 20 29 10 25 29 21 20 13 17 13 16 21 19 17 16 11 4 10 11 14 15
37 37 37 36 35 34 33 32 30 28 26 24 21 18 14 11 12 9 19 19 7 8 12 9 11 20 20 28 22 6 19 19 14 25 21 20 7 14 18 15 16 1 8 6 7 10 17
39 40 40 39 38 37 36 34 32 30 27 25 22 19 15 10 5 13 20 16 11 11 9 12 13 19 24 18 25 19 22 29 20 22 30 23 24 11 8 11 12 17 13 6 11 11 14
37 39 43 43 41 40 38 36 35 32 29 26 23 20 17 12 9 14 18 16 14 13 24 10 16 24 22 20 22 20 20 23 29 24 14 24 18 27 18 22 12 23 19 9 10 14 14
34 36 41 43 45 43 41 39 37 34 30 26 23 15 15 14 13 12 18 23 13 22 29 18 21 21 16 22 13 20 22 22 24 22 16 17 17 1 11 21 19 12 22 14 11 11 8
36 36 38 41 45 46 44 41 39 36 32 27 14 14 19 16 15 12 16 21 16 19 27 23 18 16 19 25 16 22 20 17 18 26 13 10 6 6 10 7 23 14 10 7 5 7 10
39 39 40 41 44 46 47 43 40 37 34 29 14 13 14 18 12 12 11 12 13 28 27 28 22 15 22 27 20 21 15 5 21 24 20 9 4 8 9 13 18 17 14 9 7 9 6
41 40 40 42 45 46 48 46 42 39 35 26 15 17 12 17 16 14 16 7 18 31 32 24 23 19 27 25 23 20 19 14 14 16 18 11 4 10 15 4 6 21 23 22 8 8 9
43 42 43 40 44 46 47 47 44 41 39 17 14 14 9 18 17 20 24 19 24 33 34 29 24 23 19 19 12 19 18 5 16 18 18 14 7 5 6 6 7 12 16 23 19 4 18
42 42 41 28 40 44 45 47 45 43 41 18 11 10 7 14 20 25 30 14 10 29 34 29 21 23 21 17 12 20 18 8 10 12 5 14 10 14 13 8 7 21 21 21 24 14 13
38 35 30 8 32 38 42 46 44 43 42 16 12 7 12 12 15 28 24 11 17 14 20 26 20 29 23 13 22 14 24 9 7 8 7 11 14 15 18 6 8 13 23 24 29 27 21
33 31 21 15 19 28 40 43 43 43 42 13 9 5 4 15 27 22 29 32 24 20 21 28 21 30 29 21 25 21 18 12 12 13 13 9 9 14 20 13 9 13 17 23 26 25 28
31 24 19 9 20 33 39 40 41 39 34 9 6 7 3 9 21 20 24 17 27 26 23 31 30 24 24 15 10 3 14 13 12 14 13 11 9 8 7 10 7 17 22 21 20 23 23
39 23 17 21 25 30 33 35 36 36 29 8 8 6 6 9 12 18 23 25 27 29 19 22 28 26 14 25 19 17 19 11 10 9 14 15 13 6 5 11 11 2 5 22 23 20 21
40 23 19 20 23 25 29 32 32 32 32 11 8 9 7 4 14 19 26 24 22 23 11 16 11 15 22 11 6 6 3 3 4 6 17 15 9 7 8 14 8 11 7 11 19 20 22
36 39 8 15 21 26 27 28 29 30 32 12 8 7 6 8 8 14 20 22 14 10 4 5 10 23 9 6 4 8 9 9 9 8 4 11 8 7 8 8 11 4 13 7 7 13 12
35 34 37 2 13 19 21 24 27 27 29 13 7 8 3 3 3 9 12 22 5 10 8 7 9 4 2 6 5 4 5 8 13 16 13 11 7 13 8 8 4 7 14 12 9 2 6
32 32 31 29 27 17 20 21 21 21 23 15 8 9 5 3 3 6 11 14 8 12 10 10 8 1 3 5 6 5 5 8 5 12 13 13 13 8 6 7 13 16 17 12 8 10 10
30 31 28 28 26 24 10 20 23 22 22 21 2 3 5 2 3 3 8 11 2 15 14 15 4 10 7 6 4 6 5 6 11 10 9 8 5 8 10 5 7 21 8 9 8 10 7
Wind_Direction
287 288 294 293 292 292 292 313 238 219 218 217 217 212 210 214 208 204 199 197 205 220 243 289 317 321 299 240 252 131 166 153 194 170 241 196 209 228 238 234 229 237 255 254 252 241 252
280 283 283 283 286 289 284 283 286 270 215 216 212 214 213 210 208 203 197 195 187 207 222 258 314 311 265 259 312 231 216 191 200 197 242 221 215 190 263 244 244 12 259 250 255 251 253
260 265 265 273 272 281 281 280 286 292 283 216 215 209 207 210 205 199 195 192 176 194 201 207 279 289 241 246 283 210 195 227 218 260 249 229 200 199 157 227 259 269 268 255 250 249 243
275 275 271 269 274 274 274 276 274 284 287 277 218 212 207 203 203 200 189 184 174 183 190 185 211 234 256 258 258 255 244 248 241 238 208 254 217 227 222 203 213 252 246 257 134 200 171
276 274 269 271 266 269 275 271 270 270 273 277 272 216 207 203 196 191 178 173 169 164 149 156 210 237 265 135 226 246 224 232 204 196 196 197 210 221 183 224 241 211 257 214 181 229 245
268 269 267 266 263 266 268 271 271 264 262 263 270 256 205 199 195 182 162 146 136 121 169 166 273 240 235 228 190 209 179 188 160 148 147 168 197 201 217 210 228 239 227 215 252 165 219
268 267 261 261 263 262 260 264 264 271 266 263 253 261 233 197 189 167 133 122 142 202 200 198 177 226 334 217 232 214 190 175 158 185 182 184 205 206 209 212 236 274 269 267 222 256 288
267 264 261 260 255 251 254 257 261 264 270 271 273 249 258 209 190 166 170 202 193 83 221 220 245 220 239 179 211 205 174 188 190 203 195 173 223 223 220 209 223 223 250 260 273 275 254
265 263 259 257 253 250 250 253 255 257 259 265 268 265 246 231 192 170 185 197 199 233 261 203 216 224 218 225 231 197 195 199 203 209 195 214 203 223 189 193 208 222 236 253 262 252 260
262 258 256 256 254 251 247 247 244 244 249 250 258 263 249 240 195 182 203 181 175 176 263 244 195 230 218 231 246 226 199 196 204 216 208 232 208 198 199 206 206 229 223 250 260 267 270
257 255 252 252 248 246 247 242 241 242 241 244 246 253 248 212 196 195 169 171 124 79 222 231 211 164 185 198 143 207 212 219 219 197 190 196 203 201 210 207 194 246 181 237 258 265 273
257 253 250 247 244 242 239 240 239 238 239 235 231 239 244 255 242 212 157 148 112 144 215 228 149 183 172 201 218 163 192 213 230 231 222 243 184 219 229 228 196 111 177 210 242 253 248
260 253 247 244 241 238 235 233 230 231 232 232 229 224 233 222 233 169 158 160 183 198 141 192 186 174 186 181 202 193 186 191 191 200 220 218 229 211 200 170 197 196 179 223 224 210 252
263 257 248 243 238 234 230 228 226 224 224 226 226 222 227 229 233 207 171 190 205 176 185 144 168 182 190 166 203 197 191 196 211 215 211 217 219 211 198 212 185 202 195 210 252 250 257
275 263 251 244 236 231 227 223 220 218 216 217 217 224 225 217 213 242 186 206 189 176 189 162 168 171 191 182 178 190 206 207 202 206 218 201 222 202 194 211 200 200 219 228 266 282 271
290 275 260 245 234 227 221 217 214 212 208 203 212 221 225 212 201 221 234 198 182 189 176 165 182 182 181 186 184 190 191 206 203 201 220 198 163 189 158 203 224 179 185 163 215 215 240
297 283 265 249 233 223 215 211 208 204 201 195 203 219 217 202 193 226 228 207 179 200 179 175 182 169 189 184 193 190 188 177 191 189 202 182 206 151 171 208 181 197 200 203 200 231 262
302 286 274 248 229 218 209 204 200 196 191 186 199 219 186 177 204 217 220 217 186 185 191 191 192 178 184 179 181 181 204 204 190 168 194 193 195 184 200 118 289 214 206 200 190 170 238
314 301 284 248 224 207 201 196 192 187 183 176 199 213 198 185 202 216 216 217 211 181 187 183 193 184 176 176 174 192 198 135 163 169 173 172 190 172 194 201 215 231 216 219 223 249 220
327 324 312 247 201 192 192 185 182 180 178 174 178 199 216 205 211 219 200 215 222 192 187 189 174 177 157 179 184 188 172 176 176 163 193 183 186 232 238 279 186 209 214 215 211 225 221
340 344 353 137 169 174 180 174 175 173 174 169 180 203 184 185 205 211 221 200 191 184 191 186 174 183 166 176 194 185 183 129 166 152 182 210 237 236 252 241 249 223 215 211 217 224 222
350 2 15 65 140 166 163 163 167 170 170 179 164 170 167 208 205 214 222 210 200 187 177 191 175 188 186 193 191 186 158 160 163 184 178 188 229 227 232 212 250 236 235 216 226 233 245
360 9 18 98 140 145 152 158 161 166 168 179 163 241 199 180 221 194 213 207 202 186 193 191 183 172 192 192 164 107 170 168 151 172 170 154 167 180 225 193 242 262 225 224 220 230 235
5 23 55 91 116 136 147 153 162 172 178 159 181 178 171 240 210 210 217 219 198 200 172 196 197 184 133 110 80 55 58 69 144 179 169 168 161 162 141 152 224 289 336 215 223 219 231
10 19 76 104 126 139 153 162 171 175 183 183 164 193 199 205 222 252 209 199 206 196 181 179 161 128 146 101 97 108 69 98 81 172 181 184 144 144 173 208 289 218 190 183 198 230 230
18 16 65 133 152 161 166 171 177 179 185 196 173 207 199 246 233 244 215 205 197 142 97 88 118 148 111 95 138 156 168 152 169 139 138 182 192 193 178 207 220 1 154 162 170 253 206
21 25 22 109 160 167 174 182 186 188 185 191 185 186 177 249 14 306 224 197 164 139 97 130 134 86 354 128 132 140 143 141 167 165 160 162 165 202 189 224 262 141 150 153 182 99 135
21 25 29 32 18 206 182 191 198 198 190 185 195 196 173 219 339 344 296 173 165 158 143 153 111 231 122 134 151 138 150 178 145 168 177 170 161 179 179 212 237 156 157 181 109 123 126
15 21 28 27 29 22 219 195 198 195 191 185 133 156 97 125 355 296 319 7 233 180 125 178 61 134 144 124 142 130 167 159 152 180 214 190 191 163 192 196 125 168 154 128 144 142 137